contact:dominique.lefevre@mio.osupytheas.fr, maurice.libes@osupytheas.fr, didier.mallarino@osupytheas.fr
Project:EMSO http://www.emso-fr.org/EMSO-France
Depth: 2436.0 m
Title:EMSO Ligure Ouest : Data MII capteur AQUADOPP
Date,Latitude,Longitude,X_East,Y_North,Z_Up,Amplitude_X,Amplitude_Y,Amplitude_Z,Batterie,SoundSpeed,Heading,Pitch,Roll,Pressure,TIS,Speed,Direction
, degrees North, degrees East, m.s-1, m.s-1,m.s-1, 1, 1, 1, Volt, m.s-1, degree, degree, degree, dbar, degree_C, m.s-1, degree
2021-10-21T00:04:03,42.805,6.029,-0.001,-0.018,-0.011,101.0,100.0,99.0,13.4,1505.2,325.5,-0.8,1.8,2470.646,13.28,0.018,183.2
2021-10-21T00:07:03,42.805,6.029,0.013,-0.034,-0.031,101.0,101.0,100.0,13.4,1505.2,329.1,-0.8,1.8,2470.635,13.28,0.036,159.1
2021-10-21T00:10:03,42.805,6.029,0.023,-0.042,-0.025,100.0,101.0,99.0,13.3,1505.2,326.7,-0.7,1.8,2470.649,13.28,0.047,151.3
2021-10-21T00:13:03,42.805,6.029,0.002,-0.027,-0.023,101.0,99.0,99.0,13.3,1505.2,328.9,-0.8,1.8,2470.614,13.28,0.027,175.8
2021-10-21T00:16:03,42.805,6.029,-0.003,0.002,-0.022,98.0,102.0,100.0,13.4,1505.2,331.5,-0.7,1.8,2470.621,13.28,0.003,303.7
2021-10-21T00:19:03,42.805,6.029,0.031,-0.014,-0.037,101.0,100.0,99.0,13.4,1505.2,331.4,-0.8,1.8,2470.583,13.28,0.034,114.3
2021-10-21T00:22:03,42.805,6.029,0.043,-0.017,-0.01,100.0,101.0,99.0,13.4,1505.2,330.3,-0.7,1.9,2470.59,13.28,0.046,111.6
2021-10-21T00:25:03,42.805,6.029,0.021,-0.021,-0.013,101.0,103.0,99.0,13.4,1505.2,326.5,-0.8,1.8,2470.592,13.28,0.029,135.0
2021-10-21T00:28:03,42.805,6.029,0.059,-0.047,-0.019,101.0,102.0,98.0,13.4,1505.2,328.3,-0.8,1.8,2470.593,13.28,0.075,128.5
2021-10-21T00:31:03,42.805,6.029,0.02,-0.039,-0.061,100.0,100.0,99.0,13.4,1505.2,330.1,-0.8,1.8,2470.623,13.28,0.043,152.9
2021-10-21T00:34:03,42.805,6.029,0.017,-0.018,0.016,100.0,101.0,99.0,13.4,1505.2,325.5,-0.8,1.8,2470.556,13.28,0.024,136.6
2021-10-21T00:37:03,42.805,6.029,0.029,-0.009,-0.01,101.0,100.0,99.0,13.4,1505.2,329.2,-0.8,1.8,2470.605,13.28,0.03,107.2
2021-10-21T00:40:03,42.805,6.029,0.038,-0.033,-0.035,100.0,100.0,99.0,13.3,1505.2,331.1,-0.7,1.8,2470.591,13.28,0.05,131.0
2021-10-21T00:43:03,42.805,6.029,0.022,-0.031,-0.017,101.0,101.0,100.0,13.4,1505.2,328.1,-0.8,1.8,2470.597,13.28,0.038,144.6
2021-10-21T00:46:03,42.805,6.029,0.01,-0.023,-0.039,100.0,100.0,100.0,13.4,1505.2,326.0,-0.7,1.8,2470.593,13.28,0.025,156.5
2021-10-21T00:49:03,42.805,6.029,0.025,-0.033,-0.023,101.0,98.0,98.0,13.4,1505.2,330.6,-0.7,1.8,2470.578,13.28,0.041,142.8
2021-10-21T00:52:03,42.805,6.029,0.023,-0.021,0.006,100.0,100.0,99.0,13.4,1505.2,329.3,-0.7,1.9,2470.578,13.28,0.031,132.4
2021-10-21T00:55:03,42.805,6.029,0.016,-0.018,-0.015,100.0,100.0,100.0,13.3,1505.2,327.6,-0.7,1.8,2470.591,13.28,0.024,138.4
2021-10-21T00:58:03,42.805,6.029,0.0,-0.006,-0.014,100.0,100.0,100.0,13.4,1505.2,327.7,-0.7,1.8,2470.564,13.28,0.006,180.0
2021-10-21T01:04:03,42.805,6.029,0.0,-0.036,-0.027,104.0,101.0,101.0,13.4,1505.2,330.0,-0.8,1.8,2470.581,13.28,0.036,180.0
2021-10-21T01:07:03,42.805,6.029,0.0,-0.038,-0.065,100.0,103.0,100.0,13.4,1505.2,325.4,-0.8,1.8,2470.623,13.28,0.038,180.0
2021-10-21T01:10:03,42.805,6.029,0.023,-0.019,-0.012,99.0,100.0,100.0,13.4,1505.2,327.3,-0.8,1.8,2470.624,13.28,0.029,129.6
2021-10-21T01:13:03,42.805,6.029,0.021,-0.029,-0.035,100.0,101.0,100.0,13.4,1505.2,331.3,-0.7,1.8,2470.562,13.28,0.035,144.1
2021-10-21T01:16:03,42.805,6.029,0.025,-0.041,-0.031,101.0,100.0,99.0,13.4,1505.2,331.7,-0.8,1.8,2470.582,13.28,0.048,148.6
2021-10-21T01:19:03,42.805,6.029,0.023,-0.023,-0.018,101.0,99.0,100.0,13.3,1505.2,331.1,-0.7,1.8,2470.574,13.28,0.032,135.0
2021-10-21T01:22:03,42.805,6.029,0.032,-0.027,0.016,101.0,101.0,99.0,13.3,1505.2,331.8,-0.7,1.8,2470.552,13.28,0.041,130.2
2021-10-21T01:25:03,42.805,6.029,0.014,-0.03,-0.036,99.0,101.0,100.0,13.4,1505.2,327.6,-0.8,1.8,2470.556,13.28,0.033,155.0
2021-10-21T01:28:03,42.805,6.029,0.035,-0.032,-0.008,102.0,100.0,99.0,13.3,1505.2,331.3,-0.8,1.8,2470.568,13.28,0.047,132.4
2021-10-21T01:31:03,42.805,6.029,0.023,-0.025,-0.04,101.0,101.0,99.0,13.4,1505.2,331.6,-0.8,1.9,2470.571,13.28,0.033,137.4
2021-10-21T01:34:03,42.805,6.029,-0.013,-0.015,-0.002,101.0,99.0,100.0,13.3,1505.2,330.6,-0.8,1.8,2470.523,13.28,0.019,220.9
2021-10-21T01:37:03,42.805,6.029,0.007,-0.017,-0.001,99.0,100.0,100.0,13.4,1505.2,330.1,-0.8,1.8,2470.539,13.28,0.018,157.6
2021-10-21T01:40:03,42.805,6.029,0.013,-0.031,-0.022,99.0,102.0,100.0,13.4,1505.2,325.5,-0.8,1.8,2470.561,13.28,0.033,157.3
2021-10-21T01:43:03,42.805,6.029,0.008,-0.032,-0.032,100.0,99.0,101.0,13.3,1505.2,329.4,-0.7,1.8,2470.558,13.28,0.032,166.0
2021-10-21T01:46:03,42.805,6.029,0.023,-0.026,-0.025,100.0,101.0,99.0,13.3,1505.2,329.3,-0.8,1.8,2470.56,13.28,0.034,138.5
2021-10-21T01:49:03,42.805,6.029,0.018,-0.041,-0.037,101.0,100.0,99.0,13.4,1505.2,325.1,-0.8,1.8,2470.539,13.28,0.044,156.3
2021-10-21T01:52:03,42.805,6.029,0.023,-0.027,-0.02,100.0,101.0,100.0,13.4,1505.2,327.0,-0.7,1.9,2470.558,13.28,0.035,139.6
2021-10-21T01:55:03,42.805,6.029,0.035,-0.044,-0.035,101.0,100.0,99.0,13.4,1505.2,327.6,-0.7,1.8,2470.563,13.28,0.056,141.5
2021-10-21T01:58:03,42.805,6.029,0.029,-0.029,-0.009,101.0,99.0,99.0,13.3,1505.2,330.8,-0.7,1.8,2470.553,13.28,0.041,135.0
2021-10-21T02:04:03,42.805,6.029,0.044,-0.025,-0.005,101.0,100.0,99.0,13.4,1505.2,331.2,-0.8,1.8,2470.649,13.28,0.05,119.6
2021-10-21T02:07:03,42.805,6.029,0.035,-0.036,-0.022,101.0,100.0,100.0,13.3,1505.2,328.8,-0.8,1.8,2470.573,13.28,0.05,135.8
2021-10-21T02:10:03,42.805,6.029,0.035,-0.043,-0.022,101.0,101.0,99.0,13.4,1505.2,330.2,-0.7,1.8,2470.571,13.28,0.055,140.9
2021-10-21T02:13:03,42.805,6.029,0.033,-0.038,-0.004,101.0,99.0,99.0,13.3,1505.2,330.3,-0.8,1.8,2470.565,13.28,0.05,139.0
2021-10-21T02:16:03,42.805,6.029,0.016,-0.046,-0.068,101.0,99.0,100.0,13.3,1505.2,330.3,-0.7,1.8,2470.568,13.28,0.048,160.8
2021-10-21T02:19:03,42.805,6.029,0.026,0.001,0.0,100.0,101.0,100.0,13.4,1505.2,326.0,-0.7,1.8,2470.597,13.28,0.026,87.8
2021-10-21T02:22:03,42.805,6.029,0.019,-0.015,-0.032,100.0,100.0,100.0,13.4,1505.2,327.9,-0.8,1.8,2470.59,13.28,0.024,128.3
2021-10-21T02:25:03,42.805,6.029,0.024,-0.028,-0.047,99.0,100.0,100.0,13.3,1505.2,328.9,-0.8,1.8,2470.56,13.28,0.036,139.4
2021-10-21T02:28:03,42.805,6.029,0.01,-0.042,-0.052,102.0,99.0,99.0,13.4,1505.2,327.1,-0.8,1.8,2470.585,13.28,0.043,166.6
2021-10-21T02:31:03,42.805,6.029,0.028,-0.037,-0.039,101.0,99.0,99.0,13.4,1505.2,327.8,-0.8,1.8,2470.543,13.28,0.046,142.9
2021-10-21T02:34:03,42.805,6.029,0.023,-0.022,-0.01,100.0,101.0,99.0,13.4,1505.2,327.2,-0.7,1.8,2470.566,13.28,0.031,133.7
2021-10-21T02:37:03,42.805,6.029,0.026,-0.029,-0.007,100.0,101.0,98.0,13.4,1505.2,328.4,-0.8,1.8,2470.605,13.28,0.038,138.1
2021-10-21T02:40:03,42.805,6.029,0.039,-0.058,-0.025,100.0,100.0,100.0,13.4,1505.2,326.0,-0.7,1.8,2470.533,13.28,0.069,146.1
2021-10-21T02:43:03,42.805,6.029,0.005,-0.031,-0.051,100.0,101.0,100.0,13.4,1505.2,328.3,-0.8,1.8,2470.559,13.28,0.031,170.8
2021-10-21T02:46:03,42.805,6.029,0.041,-0.019,-0.014,102.0,100.0,100.0,13.3,1505.2,325.5,-0.8,1.8,2470.537,13.28,0.045,114.9
2021-10-21T02:49:03,42.805,6.029,0.015,-0.042,-0.049,101.0,101.0,99.0,13.3,1505.2,329.8,-0.7,1.8,2470.552,13.28,0.044,160.4
2021-10-21T02:52:03,42.805,6.029,0.019,-0.012,-0.02,100.0,100.0,100.0,13.3,1505.2,327.7,-0.8,1.9,2470.556,13.28,0.022,122.3
2021-10-21T02:55:03,42.805,6.029,0.044,-0.024,-0.027,99.0,101.0,99.0,13.4,1505.2,329.7,-0.8,1.8,2470.555,13.28,0.05,118.6
2021-10-21T02:58:03,42.805,6.029,0.015,-0.03,-0.025,100.0,100.0,100.0,13.4,1505.2,330.1,-0.7,1.8,2470.555,13.28,0.033,153.4
2021-10-21T03:04:03,42.805,6.029,0.02,-0.03,-0.01,101.0,100.0,100.0,13.3,1505.2,327.7,-0.8,1.8,2470.589,13.28,0.036,146.3
2021-10-21T03:07:03,42.805,6.029,0.026,0.0,-0.033,100.0,101.0,99.0,13.4,1505.2,327.1,-0.7,1.9,2470.606,13.28,0.026,90.0
2021-10-21T03:10:03,42.805,6.029,0.034,-0.042,-0.017,101.0,100.0,99.0,13.3,1505.2,327.8,-0.7,1.8,2470.573,13.28,0.054,141.0
2021-10-21T03:13:03,42.805,6.029,0.036,-0.013,0.008,100.0,100.0,100.0,13.3,1505.2,327.7,-0.7,1.8,2470.582,13.28,0.038,109.9
2021-10-21T03:16:03,42.805,6.029,0.045,-0.057,-0.062,101.0,100.0,101.0,13.3,1505.2,327.7,-0.7,1.8,2470.578,13.28,0.072,141.7
2021-10-21T03:19:03,42.805,6.029,0.01,-0.024,0.004,101.0,101.0,99.0,13.4,1505.2,327.4,-0.7,1.8,2470.577,13.28,0.026,157.4
2021-10-21T03:22:03,42.805,6.029,0.026,-0.03,-0.034,99.0,100.0,100.0,13.4,1505.2,330.5,-0.7,1.8,2470.581,13.28,0.039,139.1
2021-10-21T03:25:03,42.805,6.029,0.002,-0.028,-0.021,100.0,100.0,100.0,13.4,1505.2,329.2,-0.8,1.8,2470.579,13.28,0.028,175.9
2021-10-21T03:28:03,42.805,6.029,0.02,-0.033,-0.009,101.0,99.0,100.0,13.3,1505.2,327.9,-0.8,1.8,2470.549,13.28,0.038,148.8
2021-10-21T03:31:03,42.805,6.029,0.038,-0.025,-0.023,100.0,100.0,100.0,13.3,1505.2,327.9,-0.8,1.8,2470.605,13.28,0.045,123.3
2021-10-21T03:34:03,42.805,6.029,0.012,-0.021,-0.023,100.0,100.0,99.0,13.4,1505.2,328.0,-0.7,1.8,2470.589,13.28,0.024,150.3
2021-10-21T03:37:03,42.805,6.029,0.02,-0.041,-0.022,100.0,100.0,99.0,13.3,1505.2,331.3,-0.7,1.8,2470.593,13.28,0.045,154.0
2021-10-21T03:40:03,42.805,6.029,0.018,0.007,-0.037,102.0,100.0,99.0,13.4,1505.2,328.9,-0.7,1.8,2470.6,13.28,0.019,68.8
2021-10-21T03:43:03,42.805,6.029,0.009,-0.039,-0.008,100.0,100.0,99.0,13.3,1505.2,328.6,-0.7,1.8,2470.563,13.28,0.04,167.0
2021-10-21T03:46:03,42.805,6.029,0.029,-0.029,-0.044,100.0,100.0,100.0,13.4,1505.2,327.9,-0.8,1.8,2470.571,13.28,0.041,135.0
2021-10-21T03:49:03,42.805,6.029,0.03,-0.03,-0.042,100.0,100.0,99.0,13.4,1505.2,327.2,-0.8,1.8,2470.618,13.28,0.042,135.0
2021-10-21T03:52:03,42.805,6.029,0.02,-0.029,-0.023,100.0,99.0,99.0,13.4,1505.2,327.6,-0.8,1.8,2470.6,13.28,0.035,145.4
2021-10-21T03:55:03,42.805,6.029,0.0,-0.004,-0.025,100.0,100.0,99.0,13.3,1505.2,330.6,-0.7,1.8,2470.607,13.28,0.004,180.0
2021-10-21T03:58:03,42.805,6.029,0.036,-0.018,-0.013,101.0,99.0,99.0,13.4,1505.2,331.5,-0.8,1.8,2470.593,13.28,0.04,116.6
2021-10-21T04:04:03,42.805,6.029,0.02,-0.036,-0.024,100.0,101.0,99.0,13.3,1505.2,330.5,-0.8,1.8,2470.645,13.28,0.041,150.9
2021-10-21T04:07:03,42.805,6.029,0.034,-0.038,-0.026,100.0,100.0,99.0,13.3,1505.2,327.6,-0.8,1.8,2470.647,13.28,0.05,138.2
2021-10-21T04:10:03,42.805,6.029,0.026,-0.031,-0.049,102.0,101.0,100.0,13.4,1505.2,331.1,-0.8,1.8,2470.618,13.28,0.04,140.0
2021-10-21T04:13:03,42.805,6.029,0.019,-0.035,-0.028,99.0,101.0,100.0,13.4,1505.2,331.4,-0.8,1.8,2470.661,13.28,0.039,151.5
2021-10-21T04:16:03,42.805,6.029,0.023,-0.04,-0.033,101.0,100.0,99.0,13.3,1505.2,326.6,-0.8,1.8,2470.615,13.28,0.046,150.1
2021-10-21T04:19:03,42.805,6.029,0.024,-0.01,0.001,102.0,101.0,99.0,13.4,1505.2,325.8,-0.7,1.8,2470.657,13.28,0.026,112.6
2021-10-21T04:22:03,42.805,6.029,0.051,-0.062,-0.026,100.0,101.0,100.0,13.3,1505.2,330.2,-0.7,1.8,2470.681,13.28,0.08,140.6
2021-10-21T04:25:03,42.805,6.029,0.033,-0.051,-0.04,100.0,101.0,100.0,13.3,1505.2,328.5,-0.8,1.8,2470.696,13.28,0.06,147.1
2021-10-21T04:28:03,42.805,6.029,0.012,-0.005,0.016,100.0,101.0,100.0,13.3,1505.2,326.8,-0.8,1.8,2470.622,13.28,0.013,112.6
2021-10-21T04:31:03,42.805,6.029,0.043,-0.039,-0.009,100.0,99.0,99.0,13.3,1505.2,327.6,-0.7,1.8,2470.669,13.28,0.058,132.2
2021-10-21T04:34:03,42.805,6.029,0.009,-0.03,-0.015,102.0,100.0,99.0,13.4,1505.2,327.6,-0.7,1.8,2470.647,13.28,0.031,163.3
2021-10-21T04:37:03,42.805,6.029,0.005,-0.019,-0.003,101.0,101.0,100.0,13.3,1505.2,327.6,-0.8,1.8,2470.643,13.28,0.019,165.3
2021-10-21T04:40:03,42.805,6.029,0.02,-0.051,-0.063,100.0,101.0,99.0,13.3,1505.2,330.1,-0.7,1.8,2470.699,13.28,0.054,158.6
2021-10-21T04:43:03,42.805,6.029,0.004,-0.04,-0.057,101.0,100.0,99.0,13.4,1505.2,326.6,-0.7,1.8,2470.652,13.28,0.04,174.3
2021-10-21T04:46:03,42.805,6.029,0.009,-0.044,-0.029,100.0,100.0,99.0,13.4,1505.2,325.8,-0.7,1.8,2470.646,13.28,0.044,168.4
2021-10-21T04:49:03,42.805,6.029,0.012,-0.029,-0.036,101.0,100.0,99.0,13.4,1505.2,328.6,-0.7,1.8,2470.679,13.28,0.031,157.5
2021-10-21T04:52:03,42.805,6.029,0.02,-0.015,-0.005,100.0,100.0,99.0,13.4,1505.2,331.9,-0.7,1.8,2470.654,13.28,0.025,126.9
2021-10-21T04:55:03,42.805,6.029,0.016,-0.015,0.0,100.0,100.0,99.0,13.4,1505.2,326.1,-0.7,1.8,2470.634,13.28,0.021,133.1
2021-10-21T04:58:03,42.805,6.029,0.023,-0.02,-0.025,101.0,99.0,99.0,13.4,1505.2,325.7,-0.7,1.8,2470.634,13.28,0.03,131.0
2021-10-21T05:04:03,42.805,6.029,0.03,-0.016,-0.005,100.0,100.0,99.0,13.4,1505.2,327.6,-0.7,1.8,2470.709,13.28,0.034,118.1
2021-10-21T05:07:03,42.805,6.029,0.03,-0.014,0.002,100.0,101.0,100.0,13.4,1505.2,327.6,-0.7,1.8,2470.712,13.28,0.033,115.0
2021-10-21T05:10:03,42.805,6.029,0.019,-0.016,-0.02,100.0,100.0,99.0,13.3,1505.2,330.3,-0.7,1.8,2470.713,13.28,0.024,130.1
2021-10-21T05:13:03,42.805,6.029,0.012,-0.03,-0.033,102.0,100.0,99.0,13.4,1505.2,329.7,-0.7,1.8,2470.715,13.28,0.032,158.2
2021-10-21T05:16:03,42.805,6.029,0.037,-0.022,-0.003,101.0,99.0,100.0,13.4,1505.2,326.8,-0.8,1.8,2470.74,13.28,0.043,120.7
2021-10-21T05:19:03,42.805,6.029,0.026,-0.034,-0.048,99.0,99.0,101.0,13.3,1505.2,331.1,-0.8,1.8,2470.669,13.28,0.042,142.6
2021-10-21T05:22:03,42.805,6.029,0.031,-0.029,-0.04,103.0,100.0,99.0,13.4,1505.2,328.4,-0.8,1.8,2470.691,13.28,0.042,133.1
2021-10-21T05:25:03,42.805,6.029,0.005,-0.017,-0.009,101.0,101.0,100.0,13.4,1505.2,327.7,-0.8,1.8,2470.703,13.28,0.017,163.6
2021-10-21T05:28:03,42.805,6.029,0.026,-0.043,-0.002,101.0,100.0,100.0,13.4,1505.2,327.0,-0.7,1.8,2470.7,13.28,0.05,148.8
2021-10-21T05:31:03,42.805,6.029,0.018,-0.022,-0.007,101.0,100.0,100.0,13.3,1505.2,329.3,-0.8,1.8,2470.679,13.28,0.028,140.7
2021-10-21T05:34:03,42.805,6.029,0.005,-0.025,-0.023,101.0,100.0,100.0,13.4,1505.2,331.1,-0.7,1.8,2470.709,13.28,0.025,168.7
2021-10-21T05:37:03,42.805,6.029,0.019,-0.035,-0.012,101.0,100.0,100.0,13.4,1505.2,326.2,-0.8,1.8,2470.69,13.28,0.039,151.5
2021-10-21T05:40:03,42.805,6.029,0.016,-0.023,0.004,100.0,101.0,100.0,13.4,1505.2,330.5,-0.8,1.8,2470.684,13.28,0.028,145.2
2021-10-21T05:43:03,42.805,6.029,0.031,-0.031,-0.012,101.0,101.0,99.0,13.4,1505.2,327.2,-0.8,1.8,2470.711,13.28,0.043,135.0
2021-10-21T05:46:03,42.805,6.029,0.045,-0.024,-0.023,101.0,101.0,99.0,13.4,1505.2,326.9,-0.8,1.8,2470.695,13.28,0.051,118.1
2021-10-21T05:49:03,42.805,6.029,0.001,-0.031,-0.036,102.0,100.0,100.0,13.3,1505.2,331.3,-0.7,1.8,2470.679,13.28,0.031,178.2
2021-10-21T05:52:03,42.805,6.029,0.021,-0.036,-0.023,100.0,101.0,100.0,13.4,1505.2,328.3,-0.7,1.8,2470.687,13.28,0.041,149.7
2021-10-21T05:55:03,42.805,6.029,0.019,-0.023,-0.038,100.0,101.0,99.0,13.3,1505.2,331.2,-0.7,1.8,2470.723,13.28,0.029,140.4
2021-10-21T05:58:03,42.805,6.029,0.049,-0.037,-0.021,106.0,101.0,99.0,13.4,1505.2,329.4,-0.7,1.8,2470.718,13.28,0.061,127.1
2021-10-21T06:04:03,42.805,6.029,0.019,-0.028,0.004,100.0,100.0,100.0,13.4,1505.2,327.6,-0.7,1.8,2470.732,13.28,0.033,145.8
2021-10-21T06:07:03,42.805,6.029,0.022,-0.026,-0.022,102.0,99.0,99.0,13.4,1505.2,327.9,-0.7,1.8,2470.771,13.28,0.034,139.8
2021-10-21T06:10:03,42.805,6.029,-0.009,-0.002,0.014,102.0,101.0,98.0,13.4,1505.2,331.9,-0.7,1.8,2470.769,13.28,0.009,257.5
2021-10-21T06:13:03,42.805,6.029,0.031,-0.029,-0.032,101.0,101.0,99.0,13.4,1505.2,326.7,-0.7,1.8,2470.758,13.28,0.042,133.1
2021-10-21T06:16:03,42.805,6.029,0.025,-0.033,-0.041,102.0,100.0,100.0,13.3,1505.2,326.6,-0.8,1.8,2470.736,13.28,0.041,142.8
2021-10-21T06:19:03,42.805,6.029,0.024,-0.052,-0.027,100.0,100.0,100.0,13.4,1505.2,331.3,-0.7,1.8,2470.746,13.28,0.057,155.2
2021-10-21T06:22:03,42.805,6.029,0.016,-0.032,-0.018,100.0,100.0,99.0,13.3,1505.2,325.4,-0.7,1.8,2470.741,13.28,0.035,153.4
2021-10-21T06:25:03,42.805,6.029,0.009,-0.019,-0.044,100.0,101.0,100.0,13.3,1505.2,329.1,-0.7,1.9,2470.74,13.28,0.021,154.7
2021-10-21T06:28:03,42.805,6.029,0.005,-0.003,0.026,100.0,101.0,100.0,13.3,1505.2,328.2,-0.7,1.8,2470.745,13.28,0.005,121.0
2021-10-21T06:31:03,42.805,6.029,0.021,-0.035,-0.009,100.0,100.0,100.0,13.4,1505.2,331.5,-0.8,1.9,2470.7,13.28,0.04,149.0
2021-10-21T06:34:03,42.805,6.029,0.025,-0.037,-0.025,100.0,101.0,100.0,13.4,1505.2,329.0,-0.7,1.8,2470.726,13.28,0.044,146.0
2021-10-21T06:37:03,42.805,6.029,0.025,-0.024,-0.007,100.0,100.0,99.0,13.4,1505.2,329.9,-0.8,1.8,2470.702,13.28,0.034,133.8
2021-10-21T06:40:03,42.805,6.029,0.014,-0.029,-0.028,101.0,99.0,100.0,13.3,1505.2,328.9,-0.7,1.8,2470.739,13.28,0.032,154.2
2021-10-21T06:43:03,42.805,6.029,0.031,-0.039,-0.027,100.0,100.0,100.0,13.4,1505.2,327.8,-0.7,1.8,2470.751,13.28,0.049,141.5
2021-10-21T06:46:03,42.805,6.029,-0.012,-0.027,-0.046,100.0,100.0,99.0,13.4,1505.2,325.2,-0.7,1.8,2470.754,13.28,0.029,204.0
2021-10-21T06:49:03,42.805,6.029,0.004,-0.016,0.003,101.0,101.0,99.0,13.4,1505.2,331.0,-0.8,1.8,2470.758,13.28,0.016,166.0
2021-10-21T06:52:03,42.805,6.029,0.019,-0.048,-0.046,100.0,100.0,99.0,13.4,1505.2,329.9,-0.7,1.8,2470.723,13.28,0.051,158.4
2021-10-21T06:55:03,42.805,6.029,0.016,-0.033,-0.024,100.0,100.0,100.0,13.3,1505.2,327.7,-0.8,1.8,2470.729,13.28,0.036,154.1
2021-10-21T06:58:03,42.805,6.029,0.0,-0.022,-0.033,101.0,102.0,99.0,13.4,1505.2,331.1,-0.8,1.8,2470.745,13.28,0.022,180.0
2021-10-21T07:04:03,42.805,6.029,0.01,-0.033,-0.027,100.0,101.0,99.0,13.4,1505.2,330.6,-0.7,1.8,2470.77,13.28,0.034,163.1
2021-10-21T07:07:03,42.805,6.029,0.011,-0.031,-0.021,101.0,100.0,99.0,13.4,1505.2,329.4,-0.8,1.8,2470.766,13.28,0.032,160.5
2021-10-21T07:10:03,42.805,6.029,0.008,-0.027,0.003,100.0,101.0,99.0,13.4,1505.2,331.5,-0.7,1.9,2470.736,13.28,0.028,163.5
2021-10-21T07:13:03,42.805,6.029,0.016,-0.012,0.016,100.0,100.0,99.0,13.3,1505.2,327.3,-0.7,1.9,2470.743,13.28,0.02,126.9
2021-10-21T07:16:03,42.805,6.029,0.029,-0.022,0.006,100.0,101.0,99.0,13.4,1505.2,331.1,-0.8,1.8,2470.773,13.28,0.036,127.2
2021-10-21T07:19:03,42.805,6.029,0.0,-0.032,-0.045,101.0,100.0,100.0,13.3,1505.2,326.8,-0.7,1.8,2470.701,13.28,0.032,180.0
2021-10-21T07:22:03,42.805,6.029,0.014,-0.019,0.008,101.0,100.0,99.0,13.3,1505.2,330.1,-0.8,1.8,2470.711,13.28,0.023,143.6
2021-10-21T07:25:03,42.805,6.029,0.012,-0.03,-0.013,101.0,100.0,100.0,13.3,1505.2,327.7,-0.8,1.8,2470.727,13.28,0.032,158.2
2021-10-21T07:28:03,42.805,6.029,0.005,-0.042,-0.029,102.0,100.0,99.0,13.4,1505.2,329.9,-0.7,1.8,2470.792,13.28,0.042,173.2
2021-10-21T07:31:03,42.805,6.029,0.03,-0.029,-0.022,101.0,101.0,99.0,13.4,1505.2,328.6,-0.8,1.8,2470.738,13.28,0.041,134.0
2021-10-21T07:34:03,42.805,6.029,0.012,-0.027,-0.035,100.0,100.0,100.0,13.4,1505.2,329.1,-0.7,1.8,2470.757,13.28,0.029,156.0
2021-10-21T07:37:03,42.805,6.029,0.002,-0.022,-0.028,100.0,100.0,100.0,13.4,1505.2,328.5,-0.8,1.8,2470.753,13.28,0.022,174.8
2021-10-21T07:40:03,42.805,6.029,-0.005,-0.023,-0.046,101.0,100.0,99.0,13.3,1505.2,326.8,-0.8,1.8,2470.727,13.28,0.023,192.3
2021-10-21T07:43:03,42.805,6.029,0.024,-0.035,-0.034,100.0,101.0,101.0,13.3,1505.2,326.9,-0.7,1.8,2470.727,13.28,0.042,145.6
2021-10-21T07:46:03,42.805,6.029,0.013,-0.027,-0.026,101.0,101.0,99.0,13.4,1505.2,331.2,-0.8,1.8,2470.795,13.28,0.029,154.3
2021-10-21T07:49:03,42.805,6.029,0.008,-0.024,-0.035,99.0,100.0,100.0,13.4,1505.2,325.6,-0.8,1.8,2470.758,13.28,0.025,161.6
2021-10-21T07:52:03,42.805,6.029,0.019,-0.022,-0.016,100.0,101.0,100.0,13.3,1505.2,328.4,-0.7,1.9,2470.767,13.28,0.029,139.2
2021-10-21T07:55:03,42.805,6.029,0.029,-0.018,0.005,101.0,101.0,99.0,13.3,1505.2,330.7,-0.8,1.8,2470.771,13.28,0.034,121.8
2021-10-21T07:58:03,42.805,6.029,0.018,-0.025,-0.01,101.0,100.0,99.0,13.4,1505.2,331.0,-0.8,1.8,2470.699,13.28,0.03,144.2
2021-10-21T08:04:03,42.805,6.029,-0.006,-0.013,-0.014,100.0,100.0,99.0,13.4,1505.2,331.6,-0.7,1.8,2470.773,13.28,0.014,204.8
2021-10-21T08:07:03,42.805,6.029,-0.008,-0.028,0.008,101.0,101.0,99.0,13.4,1505.2,327.3,-0.8,1.9,2470.79,13.28,0.029,195.9
2021-10-21T08:10:03,42.805,6.029,0.015,-0.029,-0.038,101.0,101.0,100.0,13.4,1505.2,325.9,-0.8,1.8,2470.768,13.28,0.032,152.6
2021-10-21T08:13:03,42.805,6.029,0.02,-0.005,-0.026,101.0,101.0,100.0,13.4,1505.2,327.1,-0.7,1.8,2470.77,13.28,0.02,104.0
2021-10-21T08:16:03,42.805,6.029,0.007,-0.026,-0.006,100.0,101.0,100.0,13.3,1505.2,327.9,-0.7,1.8,2470.721,13.28,0.026,164.9
2021-10-21T08:19:03,42.805,6.029,0.011,-0.022,-0.04,100.0,100.0,100.0,13.4,1505.2,326.8,-0.8,1.8,2470.749,13.28,0.024,153.4
2021-10-21T08:22:03,42.805,6.029,-0.01,-0.025,-0.04,101.0,101.0,99.0,13.4,1505.2,329.7,-0.7,1.8,2470.767,13.28,0.026,201.8
2021-10-21T08:25:03,42.805,6.029,-0.008,-0.016,-0.021,101.0,100.0,99.0,13.4,1505.2,326.8,-0.8,1.8,2470.734,13.28,0.017,206.6
2021-10-21T08:28:03,42.805,6.029,-0.014,-0.004,-0.016,102.0,98.0,99.0,13.4,1505.2,328.3,-0.8,1.8,2470.722,13.28,0.014,254.1
2021-10-21T08:31:03,42.805,6.029,0.029,-0.052,-0.049,102.0,100.0,99.0,13.4,1505.2,326.6,-0.7,1.8,2470.666,13.28,0.059,150.9
2021-10-21T08:34:03,42.805,6.029,0.012,-0.014,0.003,99.0,101.0,101.0,13.4,1505.2,326.8,-0.8,1.8,2470.741,13.28,0.018,139.4
2021-10-21T08:37:03,42.805,6.029,-0.009,-0.04,-0.027,102.0,101.0,99.0,13.4,1505.2,326.8,-0.8,1.8,2470.741,13.28,0.041,192.7
2021-10-21T08:40:03,42.805,6.029,0.007,-0.022,-0.02,101.0,100.0,100.0,13.3,1505.2,331.4,-0.8,1.8,2470.738,13.28,0.023,162.4
2021-10-21T08:43:03,42.805,6.029,-0.002,-0.019,-0.037,100.0,100.0,99.0,13.3,1505.2,330.9,-0.8,1.8,2470.719,13.28,0.019,186.0
2021-10-21T08:46:03,42.805,6.029,0.009,-0.034,-0.02,99.0,101.0,100.0,13.4,1505.2,327.2,-0.8,1.8,2470.736,13.28,0.035,165.2
2021-10-21T08:49:03,42.805,6.029,-0.017,-0.02,-0.053,102.0,100.0,99.0,13.4,1505.2,329.8,-0.8,1.8,2470.701,13.28,0.026,220.4
2021-10-21T08:52:03,42.805,6.029,-0.013,-0.029,-0.044,102.0,100.0,100.0,13.4,1505.2,326.3,-0.8,1.8,2470.726,13.28,0.031,204.1
2021-10-21T08:55:03,42.805,6.029,0.02,-0.034,-0.019,103.0,100.0,98.0,13.4,1505.2,328.5,-0.7,1.8,2470.707,13.28,0.039,149.5
2021-10-21T08:58:03,42.805,6.029,0.016,-0.038,-0.029,100.0,100.0,99.0,13.4,1505.2,327.8,-0.8,1.8,2470.727,13.28,0.041,157.2
2021-10-21T09:04:03,42.805,6.029,0.023,-0.016,0.003,100.0,100.0,100.0,13.4,1505.2,325.6,-0.8,1.8,2470.775,13.28,0.028,124.8
2021-10-21T09:07:03,42.805,6.029,0.009,-0.025,-0.007,101.0,100.0,99.0,13.4,1505.2,328.5,-0.8,1.8,2470.716,13.28,0.026,160.2
2021-10-21T09:10:03,42.805,6.029,0.006,-0.035,-0.023,100.0,100.0,100.0,13.4,1505.2,330.2,-0.8,1.8,2470.738,13.28,0.035,170.3
2021-10-21T09:13:03,42.805,6.029,0.0,-0.021,-0.024,100.0,101.0,99.0,13.4,1505.2,325.4,-0.7,1.8,2470.73,13.28,0.021,180.0
2021-10-21T09:16:03,42.805,6.029,0.014,-0.037,0.0,99.0,101.0,100.0,13.4,1505.2,328.7,-0.8,1.8,2470.718,13.28,0.039,159.3
2021-10-21T09:19:03,42.805,6.029,0.005,-0.047,-0.022,101.0,102.0,99.0,13.4,1505.2,326.6,-0.8,1.8,2470.751,13.28,0.047,173.9
2021-10-21T09:22:03,42.805,6.029,0.021,-0.03,-0.03,101.0,100.0,99.0,13.3,1505.2,328.2,-0.7,1.8,2470.739,13.28,0.036,145.0
2021-10-21T09:25:03,42.805,6.029,0.031,-0.033,-0.045,101.0,101.0,100.0,13.4,1505.2,330.8,-0.7,1.8,2470.722,13.28,0.045,136.8
2021-10-21T09:28:03,42.805,6.029,0.002,-0.024,0.0,101.0,101.0,100.0,13.3,1505.2,329.9,-0.7,1.8,2470.716,13.28,0.024,175.2
2021-10-21T09:31:03,42.805,6.029,0.021,-0.026,-0.013,101.0,101.0,100.0,13.4,1505.2,329.2,-0.7,1.8,2470.729,13.28,0.033,141.1
2021-10-21T09:34:03,42.805,6.029,0.003,-0.027,-0.014,101.0,100.0,100.0,13.4,1505.2,326.6,-0.7,1.8,2470.705,13.28,0.027,173.7
2021-10-21T09:37:03,42.805,6.029,0.001,-0.021,-0.043,101.0,100.0,100.0,13.4,1505.2,327.1,-0.8,1.9,2470.685,13.28,0.021,177.3
2021-10-21T09:40:03,42.805,6.029,0.022,-0.016,0.002,101.0,101.0,100.0,13.4,1505.2,328.4,-0.8,1.9,2470.682,13.28,0.027,126.0
2021-10-21T09:43:03,42.805,6.029,0.015,-0.043,-0.039,101.0,100.0,99.0,13.3,1505.2,331.0,-0.7,1.8,2470.673,13.28,0.045,160.8
2021-10-21T09:46:03,42.805,6.029,0.003,-0.036,-0.036,101.0,101.0,100.0,13.4,1505.2,330.7,-0.7,1.9,2470.721,13.28,0.036,175.2
2021-10-21T09:49:03,42.805,6.029,0.009,-0.022,-0.046,100.0,100.0,100.0,13.4,1505.2,325.2,-0.7,1.8,2470.692,13.28,0.023,157.8
2021-10-21T09:52:03,42.805,6.029,0.01,-0.022,-0.021,101.0,101.0,100.0,13.4,1505.2,330.0,-0.8,1.8,2470.668,13.28,0.024,155.6
2021-10-21T09:55:03,42.805,6.029,0.0,-0.026,-0.008,101.0,101.0,99.0,13.4,1505.2,327.4,-0.8,1.8,2470.677,13.28,0.026,180.0
2021-10-21T09:58:03,42.805,6.029,-0.001,-0.026,-0.033,102.0,99.0,99.0,13.3,1505.2,328.7,-0.8,1.8,2470.707,13.28,0.026,182.2